Location: �clusier
(49.9361°N, 2.7869°E)
Time: 02:47:06
(UTC+00:00)

Cosmos 1943 Rocket - Pass Details

Date: 27 October 2021
Orbit: 811 x 844 km, 71.0° (Epoch: 07 December)

Event Time Altitude Azimuth Distance (km) Brightness Sun altitude
Rises 19:27:09 0° 333° (NNW) 3,416 5.9 -28.2°
Reaches altitude 10° 19:29:56 10° 345° (NNW) 2,477 4.9 -28.7°
Enters shadow 19:32:58 24° 12° (NNE) 1,682 3.7 -29.1°
